Terminal Aerodrome Forecast
Issued by NWS Duluth, MN

Home | Current Version | Previous Version | Text Only | Print | Product List | Glossary On
Versions: 1 2 3 4 5 6 7 8 9 10 11 12 13 14 15 16 17 18 19 20 21 22 23 24 25 26 27
000
FTUS43 KDLH 162000 AAA
TAFINL
TAF AMD
KINL 162058Z 1621/1718 30004KT P6SM OVC080
     FM171000 VRB02KT P6SM SCT025 BKN035
     FM171400 03005KT P6SM BKN050=

USA.gov is the U.S. government's official web portal to all federal, state and local government web resources and services.